Back to catalog

FALCON 9 DEB

AliveVLEO
NORAD 48607·DEBRIS·🇺🇸 United States

Launched May 15, 2021 from Cape Canaveral Space Force Station

Loading…

Next Passes (next 24 hours)

TLE

FreshSource: Space-Track

Epoch: Sep 14, 2026, 12:30 UTC

1 48607U 21041BG  26257.52083595  .00000582  00000-0  58418-4 0  9997
2 48607  53.0349  73.1070 0012226  21.7489 338.4017 15.06251353292610

Track FALCON 9 DEB in real time with AllMySat

Download on the App Store